Location: Newark
(47.5333°N, 8.7000°E)
Time: 06:36:22
(UTC+00:00)

Envisat - Visible Passes

Search period start: 18 September 2020 00:00
Search period end: 28 September 2020 00:00
Orbit: 764 x 766 km, 98.1° (Epoch: 17 September)

Date Brightness Start Highest point End Pass type
(mag) Time Alt. Az. Time Alt. Az. Time Alt. Az.
18 Sep 5.9 04:30:48 10° NE 04:34:41 22° E 04:38:33 10° SE visible
20 Sep 6.1 17:54:13 10° SW 17:57:43 19° W 18:01:14 10° NW visible
21 Sep 6.1 04:19:50 10° NE 04:23:12 17° E 04:26:32 10° SE visible
22 Sep 6.7 18:22:23 10° W 18:23:31 11° W 18:24:40 10° WNW visible
24 Sep 6.3 04:09:05 10° NE 04:11:41 14° E 04:14:18 10° ESE visible
25 Sep 6.4 18:09:28 10° WSW 18:12:00 14° W 18:14:32 10° WNW visible
26 Sep 5.8 04:33:24 10° NE 04:37:26 23° E 04:41:28 10° SE visible
27 Sep 6.6 03:58:50 10° ENE 04:00:10 11° E 04:01:30 10° E visible
